Weather History for KPEO - August, 2014

Change the Weather History Date:

Tuesday, August 12, 2014

  Actual Average (KELM) Record (KELM)
Temperature  
Mean Temperature 68 °F -  
Max Temperature 73 °F 79 °F 98 °F (1947)
Min Temperature 64 °F 54 °F 40 °F (1985)
Cooling Degree Days 3    
Growing Degree Days 18 (Base 50)    
Moisture  
Dew Point 63 °F    
Average Humidity 85    
Maximum Humidity 93    
Minimum Humidity 59    
Precipitation  
Precipitation 0.54 in - - ()
Sea Level Pressure  
Sea Level Pressure 29.84 in    
Wind  
Wind Speed 10 mph (South)    
Max Wind Speed 17 mph    
Max Gust Speed 26 mph    
Visibility 8 miles    
Events Rain    
Averages and records for this station are not official NWS values.
T = Trace of Precipitation, MM = Missing Value Source: NWS Daily Summary

Daily Weather History Graph

Daily Weather History Graph

Search for Another Location

Airport or City:

Trip Planner

Search our weather history database for the weather conditions in past years. The results will help you decide how hot, cold, wet, or windy it might be!

Date:

Astronomy

Aug. 12, 2014 Rise Set
Actual Time 6:11 AM EDT 8:14 PM EDT
Civil Twilight 5:40 AM EDT 8:44 PM EDT
Nautical Twilight 5:03 AM EDT 9:22 PM EDT
Astronomical Twilight 4:21 AM EDT 10:03 PM EDT
Moon 9:15 PM EDT (8/12) 8:30 AM EDT (8/12)
Length of Visible Light 15h 04m
Length of Day
14h 02m
Waning Gibbous, 95% of the Moon is Illuminated
Aug 12
Waning Gibbous
Aug 17
Last Quarter
Aug 25
New
Sep 2
First Quarter
Sep 8
Full

Hourly Weather History & Observations

Time (EDT) Temp. Dew Point Humidity Pressure Visibility Wind Dir Wind Speed Gust Speed Precip Events Conditions
12:53 AM 70.0 °F 55.0 °F 59% 29.94 in 10.0 mi SSE 8.1 mph - N/A   Scattered Clouds
1:53 AM 70.0 °F 55.0 °F 59% 29.92 in 10.0 mi SSE 12.7 mph - N/A   Partly Cloudy
2:53 AM 70.0 °F 55.9 °F 61% 29.90 in 10.0 mi South 10.4 mph - N/A   Overcast
3:53 AM 69.1 °F 57.9 °F 68% 29.88 in 10.0 mi South 16.1 mph 26.5 mph N/A   Overcast
4:53 AM 64.9 °F 60.1 °F 84% 29.88 in 8.0 mi South 11.5 mph - 0.01 in Rain Light Rain
5:53 AM 64.0 °F 61.0 °F 90% 29.88 in 5.0 mi South 11.5 mph - 0.12 in Rain Rain
6:30 AM 64.9 °F 61.0 °F 87% 29.87 in 5.0 mi SSE 9.2 mph - 0.06 in Rain Rain
6:53 AM 64.9 °F 61.0 °F 87% 29.86 in 7.0 mi SSE 9.2 mph - 0.09 in Rain Light Rain
7:21 AM 64.9 °F 61.0 °F 87% 29.88 in 10.0 mi South 13.8 mph 20.7 mph 0.00 in   Mostly Cloudy
7:40 AM 64.9 °F 62.1 °F 90% 29.87 in 10.0 mi South 12.7 mph - 0.00 in   Mostly Cloudy
7:53 AM 66.0 °F 62.1 °F 87% 29.86 in 10.0 mi South 13.8 mph 20.7 mph 0.00 in   Mostly Cloudy
8:53 AM 66.9 °F 62.1 °F 84% 29.86 in 10.0 mi South 12.7 mph 20.7 mph 0.00 in Rain Light Rain
9:05 AM 66.0 °F 62.1 °F 87% 29.88 in 10.0 mi South 17.3 mph 25.3 mph 0.00 in Rain Light Rain
9:50 AM 66.2 °F 62.6 °F 88% 29.87 in 7.0 mi South 9.2 mph - 0.05 in Rain Light Rain
9:53 AM 66.0 °F 62.1 °F 87% 29.86 in 7.0 mi South 10.4 mph - 0.05 in Rain Light Rain
10:30 AM 66.0 °F 63.0 °F 90% 29.87 in 10.0 mi Variable 5.8 mph - 0.03 in Rain Light Rain
10:53 AM 68.0 °F 63.0 °F 84% 29.86 in 10.0 mi South 10.4 mph - 0.03 in   Overcast
11:02 AM 68.0 °F 63.0 °F 84% 29.87 in 10.0 mi South 11.5 mph 17.3 mph N/A   Overcast
11:53 AM 69.1 °F 63.0 °F 81% 29.86 in 10.0 mi SSE 12.7 mph - N/A   Overcast
1:53 PM 72.0 °F 64.0 °F 76% 29.84 in 10.0 mi SSE 12.7 mph - 0.00 in   Overcast
2:53 PM 72.0 °F 64.0 °F 76% 29.83 in 10.0 mi SSE 17.3 mph 24.2 mph N/A   Overcast
3:53 PM 69.1 °F 64.0 °F 84% 29.82 in 6.0 mi South 11.5 mph - 0.00 in Rain Light Rain
4:53 PM 69.1 °F 64.9 °F 87% 29.81 in 10.0 mi South 10.4 mph - 0.01 in   Overcast
5:53 PM 68.0 °F 64.9 °F 90% 29.82 in 9.0 mi South 5.8 mph - 0.02 in   Overcast
6:18 PM 68.0 °F 64.9 °F 90% 29.82 in 10.0 mi South 5.8 mph - 0.00 in Rain Light Rain
6:53 PM 69.1 °F 66.0 °F 90% 29.79 in 3.0 mi SSE 4.6 mph - 0.04 in Rain Rain
7:53 PM 69.1 °F 66.0 °F 90% 29.79 in 10.0 mi Calm Calm - 0.00 in Rain Light Rain
8:02 PM 69.1 °F 64.9 °F 87% 29.80 in 9.0 mi SSE 5.8 mph - 0.01 in Rain Light Rain
8:37 PM 68.0 °F 64.9 °F 90% 29.80 in 8.0 mi South 5.8 mph - 0.03 in Rain Light Rain
8:46 PM 68.0 °F 66.0 °F 93% 29.80 in 10.0 mi South 4.6 mph - 0.03 in Rain Light Rain
8:53 PM 68.0 °F 64.9 °F 90% 29.80 in 9.0 mi South 5.8 mph - 0.03 in Rain Light Rain
9:03 PM 68.0 °F 66.0 °F 93% 29.81 in 2.5 mi South 4.6 mph - 0.05 in Rain Heavy Rain
9:12 PM 68.0 °F 66.0 °F 93% 29.81 in 6.0 mi South 4.6 mph - 0.05 in Rain Light Rain
9:26 PM 68.0 °F 66.0 °F 93% 29.80 in 2.5 mi Calm Calm - 0.11 in Rain Rain
9:36 PM 68.0 °F 66.0 °F 93% 29.80 in 3.0 mi Calm Calm - 0.13 in Rain Heavy Rain
9:39 PM 68.0 °F 66.0 °F 93% 29.80 in 3.0 mi Calm Calm - 0.13 in Rain Light Rain
9:53 PM 68.0 °F 66.0 °F 93% 29.79 in 8.0 mi Calm Calm - 0.14 in Rain Light Rain
10:28 PM 69.1 °F 64.9 °F 87% 29.79 in 10.0 mi South 8.1 mph - 0.00 in Rain Light Rain
10:53 PM 68.0 °F 64.9 °F 90% 29.78 in 10.0 mi South 4.6 mph - 0.00 in   Overcast
11:15 PM 68.0 °F 64.9 °F 90% 29.79 in 10.0 mi South 8.1 mph - N/A   Overcast
11:53 PM 68.0 °F 64.0 °F 87% 29.76 in 10.0 mi SSE 8.1 mph - 0.00 in   Overcast